Погода в Тимирязевском

Россия / Приморский край     43°51′31″N   131°57′19″E
темп.,
°C
ветер,
м/с
пор.,
м/с
влажн.,
%
обл.,
%
осадки,
мм/ч
давл.,
гПа
погр.,
м
25 февраля, чт
чт2501:00−12ююв237790 0.0 102628
04:00−12ю118093 0.0 102421
07:00−13ююв008197 0.0 102320
10:00−10сз118069 0.0 102399
13:00−5сз23730 0.0 1023336
16:00−2ссз497017 0.0 10211426
19:00−8с368453 0.0 1024129
22:00−12ссз238526 0.0 102641
26 февраля, пт
пт2601:00−14сз138240 0.0 102890
04:00−15ссз228120 0.0 102849
07:00−15ссв128274 0.0 102929
10:00−12ссв237587 0.0 1030236
13:00−8с346399 0.0 1030542
16:00−7ссв356895 0.0 1029590
19:00−11св338211 0.0 103153
22:00−14с22846 0.0 103325
27 февраля, сб
сб2701:00−16ссз23895 0.0 103527
04:00−17ссз12894 0.0 103522
07:00−17с11880 0.0 103621
10:00−13сз228018 0.0 1035158
13:00−7ю256127 0.0 1033399
16:00−4ю8146135 0.0 1031698
19:00−7ю10197742 0.0 1030611
22:00−5ю10198759 0.0 1030726
28 февраля, вс
вс2801:00−2ю112088100 0.1 1028742
04:000ю91889100 0.1 1027731
07:00+1ю81690100 0.0 1027467
10:00+1ю71292100 0.0 1027368
13:00+2ю61093100 0.0 1025383
16:00+3ю5984100 0.0 1024376
19:00+1ю5990100 0.0 1025219
22:00−1ссв4797100 0.1 1026241
1 марта, пн
пн101:00−5ссв71292100 1.8 1027575
04:00−6ссв71285100 2.0 1029680
07:00−8с71273100 0.0 1031592
10:00−9ссв81266100 0.0 1034777
13:00−8ссв6865100 0.0 1033961
16:00−8ссв6966100 0.0 1032833
19:00−9ссв5869100 0.0 1031665
22:00−10ссв4868100 0.0 1032682